This is the latest recevied weather packets stored in our database for station/object KS5S. If no packets are shown the sender has not sent any weather packets the latest 10 day(s).
| Time | Temp. | Humidity | Pressure | Rain* | Wind** | Luminosity | Snow |
|---|---|---|---|---|---|---|---|
| 1778006998 | 30.56° C | 66% | 1003.3 hPa | 0 mm | - | 432 W/m² | - |
| 1778006695 | 30° C | 66% | 1003.4 hPa | 0 mm | - | 569 W/m² | - |
| 1778006391 | 30° C | 68% | 1003.2 hPa | 0 mm | - | 564 W/m² | - |
| 1778006089 | 30° C | 67% | 1003.3 hPa | 0 mm | - | 620 W/m² | - |
| 1778005785 | 29.44° C | 69% | 1003.3 hPa | 0 mm | - | 573 W/m² | - |
| 1778005482 | 30° C | 67% | 1003.7 hPa | 0 mm | - | 592 W/m² | - |
| 1778005178 | 29.44° C | 68% | 1003.5 hPa | 0 mm | - | 907 W/m² | - |
| 1778004876 | 29.44° C | 70% | 1003.7 hPa | 0 mm | - | 707 W/m² | - |
| 1778004573 | 28.89° C | 71% | 1003.5 hPa | 0 mm | - | 698 W/m² | - |
| 1778004269 | 28.89° C | 70% | 1003.3 hPa | 0 mm | - | 696 W/m² | - |
| 1778003966 | 29.44° C | 70% | 1003.4 hPa | 0 mm | - | 847 W/m² | - |
| 1778003662 | 29.44° C | 71% | 1003.4 hPa | 0 mm | - | 831 W/m² | - |
| 1778003358 | 28.89° C | 71% | 1003.5 hPa | 0 mm | - | 812 W/m² | - |
| 1778003056 | 28.89° C | 70% | 1003.7 hPa | 0 mm | - | 859 W/m² | - |
| 1778002752 | 28.89° C | 71% | 1003.7 hPa | 0 mm | - | 1083 W/m² | - |
| 1778002448 | 27.78° C | 73% | 1003.4 hPa | 0 mm | - | 771 W/m² | - |
| 1778002146 | 27.78° C | 73% | 1003.5 hPa | 0 mm | - | 433 W/m² | - |
| 1778001844 | 27.78° C | 73% | 1003.5 hPa | 0 mm | - | 463 W/m² | - |
| 1778001543 | 28.33° C | 73% | 1003.5 hPa | 0 mm | - | 471 W/m² | - |
| 1778001240 | 27.78° C | 73% | 1003.4 hPa | 0 mm | - | 522 W/m² | - |
| 1778000937 | 28.33° C | 73% | 1003.2 hPa | 0 mm | - | 704 W/m² | - |
| 1778000634 | 27.78° C | 74% | 1003.4 hPa | 0 mm | - | 718 W/m² | - |
| 1778000329 | 27.78° C | 75% | 1003.2 hPa | 0 mm | - | 563 W/m² | - |
| 1778000025 | 27.22° C | 75% | 1003.4 hPa | 0 mm | - | 557 W/m² | - |
| 1777999720 | 27.22° C | 76% | 1003.2 hPa | 0 mm | - | 530 W/m² | - |
* Rain latest hour (hover to see other rain measurements)
** Current wind speed in m/s (hover to see current wind gust speed)